sat.trackr.live / text

‹ back to catalog

UNKNOWN

NORAD 84407

UNKNOWN UNKNOWN UNKNOWN

§ Identity

Operator
Country
Launch date
Launch site
Launch vehicle
Mass (kg)
RCS (m²)

External: N2YO · Heavens-Above

§ Orbital elements

Epoch: 2026-09-07T06:09:41.044320Z

Period
699.56 min
Inclination
18.7652°
Eccentricity
0.7241930
Mean motion
2.05844624 rev/d
Perigee alt
821.6 km
Apogee alt
38,630.4 km
Semi-major
26,104.1 km
B*
-7.4514e-3
RAAN
242.3832°
Arg perigee
208.6734°
Mean anomaly
77.1037°
Rev number
8,140

§ Raw data

UNKNOWN1 84407U          26250.25672505  .00000181  00000+0 -74514-2 0  99932 84407  18.7652 242.3832 7241930 208.6734  77.1037  2.05844624 81407

JSON: /api/v1/satellites/84407 · /tle

For live sub-satellite position, see the globe view (requires WebGL).

§ Visibility from observer

Set your observer location to see the next 7 days of passes ≥ 10°. The values pass through the URL so the page stays shareable.

No JS? Fill the form by hand. The geolocation button needs JavaScript.